| time (UTC) | temp C | wind direction | speed KPH | gust KPH | rain 1hr cm | rain 24hr cm | rain mn cm | humidity % | barometer mb |
| 20260502204845 | 16 | 127 | 3.2 | 9.7 | 0.00 | 0.00 | 0.00 | 30 | 1013.7 |
| 20260502204342 | 16 | 112 | 4.8 | 8.0 | 0.00 | 0.00 | 0.00 | 31 | 1013.7 |
| 20260502203839 | 16 | 321 | 4.8 | 14.5 | 0.00 | 0.00 | 0.00 | 32 | 1013.8 |
| 20260502203337 | 16 | 151 | 0.0 | 14.5 | 0.00 | 0.00 | 0.00 | 31 | 1013.9 |
| 20260502202832 | 16 | 294 | 1.6 | 4.8 | 0.00 | 0.00 | 0.00 | 30 | 1013.8 |
| 20260502202330 | 16 | 240 | 3.2 | 12.9 | 0.00 | 0.00 | 0.00 | 31 | 1013.9 |
| 20260502201828 | 15 | 270 | 0.0 | 8.0 | 0.00 | 0.00 | 0.00 | 33 | 1014.0 |
| 20260502201323 | 15 | 135 | 0.0 | 4.8 | 0.00 | 0.00 | 0.00 | 34 | 1014.0 |
| 20260502200820 | 16 | 262 | 3.2 | 11.3 | 0.00 | 0.00 | 0.00 | 32 | 1014.2 |
| 20260502200316 | 15 | 171 | 4.8 | 8.0 | 0.00 | 0.00 | 0.00 | 31 | 1014.1 |
| 20260502195814 | 15 | 212 | 8.0 | 14.5 | 0.00 | 0.00 | 0.00 | 32 | 1014.5 |
| 20260502195310 | 15 | 268 | 8.0 | 16.1 | 0.00 | 0.00 | 0.00 | 33 | 1014.4 |
| 20260502194807 | 15 | 240 | 1.6 | 11.3 | 0.00 | 0.00 | 0.00 | 31 | 1014.5 |
| 20260502194304 | 16 | 209 | 8.0 | 11.3 | 0.00 | 0.00 | 0.00 | 31 | 1014.5 |
| 20260502193800 | 15 | 218 | 8.0 | 11.3 | 0.00 | 0.00 | 0.00 | 32 | 1014.7 |
| 20260502193257 | 15 | 270 | 9.7 | 11.3 | 0.00 | 0.00 | 0.00 | 31 | 1014.9 |
| 20260502192752 | 15 | 160 | 4.8 | 11.3 | 0.00 | 0.00 | 0.00 | 36 | 1014.8 |
| 20260502192249 | 15 | 350 | 0.0 | 11.3 | 0.00 | 0.00 | 0.00 | 34 | 1014.9 |
| 20260502191746 | 13 | 65 | 3.2 | 6.4 | 0.00 | 0.00 | 0.00 | 40 | 1014.9 |
| 20260502191244 | 13 | 90 | 3.2 | 9.7 | 0.00 | 0.00 | 0.00 | 30 | 1015.1 |
| 20260502190741 | 15 | 143 | 0.0 | 14.5 | 0.00 | 0.00 | 0.00 | 35 | 1015.2 |
| 20260502190239 | 15 | 98 | 0.0 | 14.5 | 0.00 | 0.00 | 0.00 | 32 | 1015.2 |
| 20260502185738 | 14 | 105 | 1.6 | 12.9 | 0.00 | 0.00 | 0.00 | 31 | 1015.3 |
| 20260502185235 | 13 | 148 | 3.2 | 8.0 | 0.00 | 0.00 | 0.00 | 33 | 1015.4 |
| 20260502184732 | 13 | 147 | 3.2 | 11.3 | 0.00 | 0.00 | 0.00 | 32 | 1015.7 |
| 20260502184228 | 14 | 326 | 4.8 | 14.5 | 0.00 | 0.00 | 0.00 | 30 | 1015.6 |
| 20260502183724 | 13 | 156 | 6.4 | 9.7 | 0.00 | 0.00 | 0.00 | 31 | 1015.7 |
| 20260502183220 | 13 | 29 | 0.0 | 9.7 | 0.00 | 0.00 | 0.00 | 31 | 1015.9 |
| 20260502182716 | 14 | 317 | 6.4 | 8.0 | 0.00 | 0.00 | 0.00 | 33 | 1015.8 |
| 20260502182211 | 13 | 208 | 3.2 | 11.3 | 0.00 | 0.00 | 0.00 | 37 | 1015.8 |
| 20260502181709 | 13 | 338 | 9.7 | 9.7 | 0.00 | 0.00 | 0.00 | 37 | 1016.0 |
| 20260502181208 | 13 | 235 | 6.4 | 16.1 | 0.00 | 0.00 | 0.00 | 34 | 1015.9 |
| 20260502180705 | 12 | 22 | 4.8 | 9.7 | 0.00 | 0.00 | 0.00 | 34 | 1016.1 |
| 20260502180202 | 13 | 22 | 0.0 | 8.0 | 0.00 | 0.00 | 0.00 | 32 | 1016.1 |
| 20260502170126 | 11 | 174 | 12.9 | 14.5 | 0.00 | 0.00 | 0.00 | 37 | 1016.9 |
| 20260502164113 | 12 | 207 | 6.4 | 12.9 | 0.00 | 0.00 | 0.00 | 37 | 1017.4 |
| 20260502163609 | 12 | 264 | 6.4 | 11.3 | 0.00 | 0.00 | 0.00 | 40 | 1017.2 |
| 20260502163105 | 12 | 296 | 4.8 | 4.8 | 0.00 | 0.00 | 0.00 | 43 | 1017.3 |
| 20260502162602 | 12 | 25 | 4.8 | 12.9 | 0.00 | 0.00 | 0.00 | 38 | 1017.4 |
| 20260502162059 | 11 | 188 | 0.0 | 8.0 | 0.00 | 0.00 | 0.00 | 39 | 1017.5 |
| 20260502161556 | 12 | 149 | 4.8 | 17.7 | 0.00 | 0.00 | 0.00 | 38 | 1017.7 |
| 20260502161054 | 11 | 352 | 3.2 | 17.7 | 0.00 | 0.00 | 0.00 | 41 | 1017.5 |
| 20260502160552 | 12 | 229 | 9.7 | 9.7 | 0.00 | 0.00 | 0.00 | 37 | 1017.5 |
| 20260502152311 | 10 | 340 | 0.0 | 8.0 | 0.00 | 0.00 | 0.00 | 38 | 1017.6 |
| 20260502151808 | 10 | 328 | 6.4 | 8.0 | 0.00 | 0.00 | 0.00 | 41 | 1017.7 |
| 20260502151305 | 10 | 328 | 4.8 | 14.5 | 0.00 | 0.00 | 0.00 | 42 | 1017.8 |
| 20260502150803 | 11 | 277 | 9.7 | 19.3 | 0.00 | 0.00 | 0.00 | 42 | 1017.9 |
| 20260502150259 | 10 | 343 | 0.0 | 12.9 | 0.00 | 0.00 | 0.00 | 43 | 1018.0 |
| 20260502130647 | 7 | 180 | 4.8 | 4.8 | 0.00 | 0.00 | 0.00 | 60 | 1018.1 |
| 20260502130145 | 6 | 217 | 3.2 | 8.0 | 0.00 | 0.00 | 0.00 | 61 | 1018.1 |
| 20260502123631 | 5 | 208 | 3.2 | 4.8 | 0.00 | 0.00 | 0.00 | 66 | 1017.9 |
| 20260502123127 | 4 | 135 | 3.2 | 3.2 | 0.00 | 0.00 | 0.00 | 68 | 1018.0 |
| 20260502122624 | 3 | 160 | 0.0 | 3.2 | 0.00 | 0.00 | 0.00 | 71 | 1018.0 |
| 20260502122121 | 2 | 141 | 4.8 | 8.0 | 0.00 | 0.00 | 0.00 | 74 | 1018.0 |
| 20260502121619 | 1 | 90 | 1.6 | 3.2 | 0.00 | 0.00 | 0.00 | 80 | 1018.0 |
| 20260502121116 | 1 | 102 | 1.6 | 3.2 | 0.00 | 0.00 | 0.00 | 80 | 1018.1 |
| 20260502120612 | 1 | 123 | 3.2 | 3.2 | 0.00 | 0.00 | 0.00 | 81 | 1018.0 |
| 20260502120109 | 1 | 90 | 0.0 | 3.2 | 0.00 | 0.00 | 0.00 | 81 | 1018.0 |
| 20260502115607 | 0 | 106 | 0.0 | 1.6 | 0.00 | 0.00 | 0.00 | 82 | 1018.2 |
| 20260502115102 | 0 | 90 | 0.0 | 1.6 | 0.00 | 0.00 | 0.00 | 82 | 1017.9 |
| 20260502114559 | 0 | 90 | 0.0 | 1.6 | 0.00 | 0.00 | 0.00 | 82 | 1017.8 |
| 20260502114056 | 0 | 112 | 0.0 | 3.2 | 0.00 | 0.00 | 0.00 | 83 | 1017.9 |
| 20260502113554 | 0 | 111 | 0.0 | 0.0 | 0.00 | 0.00 | 0.00 | 83 | 1017.9 |
| 20260502113052 | 0 | 180 | 0.0 | 0.0 | 0.00 | 0.00 | 0.00 | 83 | 1017.8 |
| 20260502112549 | 0 | 144 | 0.0 | 0.0 | 0.00 | 0.00 | 0.00 | 84 | 1017.7 |
| 20260502112047 | 0 | 117 | 0.0 | 0.0 | 0.00 | 0.00 | 0.00 | 83 | 1017.9 |
| 20260502111544 | 0 | 117 | 0.0 | 1.6 | 0.00 | 0.00 | 0.00 | 84 | 1017.8 |
| 20260502111041 | 0 | 66 | 0.0 | 1.6 | 0.00 | 0.00 | 0.00 | 83 | 1017.9 |
| 20260502110539 | 0 | 145 | 0.0 | 3.2 | 0.00 | 0.00 | 0.00 | 83 | 1017.6 |
| 20260502110036 | 0 | 151 | 0.0 | 0.0 | 0.00 | 0.00 | 0.00 | 83 | 1017.7 |
| 20260502105533 | 0 | 151 | 0.0 | 0.0 | 0.00 | 0.00 | 0.00 | 83 | 1017.6 |
| 20260502105031 | 0 | 157 | 0.0 | 1.6 | 0.00 | 0.00 | 0.00 | 83 | 1017.7 |
| 20260502104528 | 0 | 151 | 0.0 | 1.6 | 0.00 | 0.00 | 0.00 | 83 | 1017.8 |
| 20260502104025 | 0 | 145 | 0.0 | 1.6 | 0.00 | 0.00 | 0.00 | 82 | 1017.6 |
| 20260502103523 | 0 | 120 | 0.0 | 0.0 | 0.00 | 0.00 | 0.00 | 83 | 1017.5 |
| 20260502103021 | 0 | 120 | 0.0 | 0.0 | 0.00 | 0.00 | 0.00 | 82 | 1017.6 |
| 20260502102517 | 0 | 157 | 0.0 | 0.0 | 0.00 | 0.00 | 0.00 | 82 | 1017.7 |
| 20260502102014 | 0 | 157 | 0.0 | 1.6 | 0.00 | 0.00 | 0.00 | 82 | 1017.7 |
| 20260502101512 | 0 | 166 | 0.0 | 1.6 | 0.00 | 0.00 | 0.00 | 81 | 1017.7 |
| 20260502101010 | 0 | 98 | 0.0 | 0.0 | 0.00 | 0.00 | 0.00 | 81 | 1017.8 |
| 20260502100508 | 0 | 97 | 0.0 | 1.6 | 0.00 | 0.00 | 0.00 | 82 | 1017.9 |
| 20260502091443 | 0 | 157 | 0.0 | 0.0 | 0.00 | 0.00 | 0.00 | 79 | 1018.0 |
| 20260502090940 | 0 | 123 | 0.0 | 1.6 | 0.00 | 0.00 | 0.00 | 79 | 1017.7 |
| 20260502090437 | 0 | 151 | 0.0 | 1.6 | 0.00 | 0.00 | 0.00 | 79 | 1018.0 |
| 20260502071331 | 1 | 90 | 1.6 | 1.6 | 0.00 | 0.00 | 0.00 | 76 | 1018.0 |
| 20260502070830 | 1 | 90 | 0.0 | 1.6 | 0.00 | 0.00 | 0.00 | 76 | 1018.0 |
| 20260502070327 | 1 | 106 | 0.0 | 0.0 | 0.00 | 0.00 | 0.00 | 75 | 1018.0 |
| 20260502065826 | 2 | 106 | 0.0 | 1.6 | 0.00 | 0.00 | 0.00 | 75 | 1017.9 |
| 20260502065323 | 2 | 75 | 0.0 | 1.6 | 0.00 | 0.00 | 0.00 | 75 | 1018.0 |
| 20260502064821 | 2 | 74 | 0.0 | 0.0 | 0.00 | 0.00 | 0.00 | 74 | 1018.1 |
| 20260502064319 | 2 | 66 | 0.0 | 0.0 | 0.00 | 0.00 | 0.00 | 74 | 1018.0 |
| 20260502063816 | 2 | 82 | 0.0 | 1.6 | 0.00 | 0.00 | 0.00 | 75 | 1018.3 |
| 20260502063314 | 2 | 106 | 0.0 | 1.6 | 0.00 | 0.00 | 0.00 | 76 | 1018.2 |
| 20260502062811 | 2 | 74 | 0.0 | 1.6 | 0.00 | 0.00 | 0.00 | 75 | 1018.2 |
| 20260502062308 | 2 | 57 | 0.0 | 1.6 | 0.00 | 0.00 | 0.00 | 75 | 1018.2 |
| 20260502061807 | 2 | 75 | 0.0 | 0.0 | 0.00 | 0.00 | 0.00 | 76 | 1018.1 |
| 20260502061304 | 2 | 98 | 0.0 | 1.6 | 0.00 | 0.00 | 0.00 | 72 | 1018.1 |
| 20260502060759 | 2 | 106 | 0.0 | 0.0 | 0.00 | 0.00 | 0.00 | 74 | 1018.1 |
| 20260502060255 | 2 | 106 | 0.0 | 1.6 | 0.00 | 0.00 | 0.00 | 73 | 1018.1 |
| 20260502055753 | 2 | 69 | 1.6 | 1.6 | 0.00 | 0.00 | 0.00 | 72 | 1018.0 |
| 20260502055250 | 2 | 90 | 0.0 | 0.0 | 0.00 | 0.00 | 0.00 | 71 | 1018.1 |
| 20260502054750 | 2 | 111 | 0.0 | 1.6 | 0.00 | 0.00 | 0.00 | 71 | 1017.9 |
| 20260502054247 | 2 | 114 | 0.0 | 1.6 | 0.00 | 0.00 | 0.00 | 70 | 1018.1 |
| 20260502053744 | 2 | 60 | 0.0 | 1.6 | 0.00 | 0.00 | 0.00 | 70 | 1018.2 |
| 20260502053241 | 2 | 54 | 0.0 | 3.2 | 0.00 | 0.00 | 0.00 | 70 | 1018.0 |
| 20260502052739 | 2 | 74 | 0.0 | 0.0 | 0.00 | 0.00 | 0.00 | 69 | 1017.8 |
| 20260502052237 | 2 | 90 | 0.0 | 1.6 | 0.00 | 0.00 | 0.00 | 69 | 1017.7 |
| 20260502051735 | 2 | 90 | 0.0 | 1.6 | 0.00 | 0.00 | 0.00 | 68 | 1018.0 |
| 20260502051233 | 2 | 83 | 0.0 | 1.6 | 0.00 | 0.00 | 0.00 | 68 | 1017.8 |
| 20260502050729 | 2 | 74 | 0.0 | 1.6 | 0.00 | 0.00 | 0.00 | 66 | 1018.0 |
| 20260502050225 | 3 | 74 | 0.0 | 0.0 | 0.00 | 0.00 | 0.00 | 66 | 1017.9 |
| 20260502045723 | 3 | 90 | 1.6 | 1.6 | 0.00 | 0.00 | 0.00 | 64 | 1018.0 |
| 20260502045219 | 3 | 74 | 0.0 | 1.6 | 0.00 | 0.00 | 0.00 | 66 | 1017.9 |
| 20260502044716 | 3 | 74 | 0.0 | 0.0 | 0.00 | 0.00 | 0.00 | 66 | 1017.7 |
| 20260502044212 | 3 | 66 | 0.0 | 1.6 | 0.00 | 0.00 | 0.00 | 64 | 1017.9 |
| 20260502043710 | 3 | 23 | 0.0 | 1.6 | 0.00 | 0.00 | 0.00 | 64 | 1017.9 |
| 20260502043208 | 3 | 66 | 1.6 | 1.6 | 0.00 | 0.00 | 0.00 | 64 | 1017.9 |
| 20260502042707 | 3 | 90 | 0.0 | 1.6 | 0.00 | 0.00 | 0.00 | 63 | 1017.8 |
| 20260502042204 | 3 | 74 | 0.0 | 0.0 | 0.00 | 0.00 | 0.00 | 65 | 1017.7 |
| 20260502041702 | 4 | 66 | 1.6 | 1.6 | 0.00 | 0.00 | 0.00 | 65 | 1017.6 |
| 20260502041159 | 4 | 49 | 1.6 | 3.2 | 0.00 | 0.00 | 0.00 | 64 | 1017.8 |
| 20260502040655 | 4 | 90 | 0.0 | 1.6 | 0.00 | 0.00 | 0.00 | 61 | 1017.8 |
| 20260502040153 | 4 | 82 | 0.0 | 1.6 | 0.00 | 0.00 | 0.00 | 60 | 1017.8 |
| 20260502035649 | 4 | 74 | 0.0 | 0.0 | 0.00 | 0.00 | 0.00 | 61 | 1017.7 |
| 20260502035146 | 5 | 74 | 0.0 | 1.6 | 0.00 | 0.00 | 0.00 | 64 | 1017.8 |
| 20260502034643 | 5 | 60 | 0.0 | 3.2 | 0.00 | 0.00 | 0.00 | 63 | 1017.8 |
| 20260502034142 | 5 | 78 | 0.0 | 3.2 | 0.00 | 0.00 | 0.00 | 62 | 1017.9 |
| 20260502033639 | 5 | 74 | 0.0 | 1.6 | 0.00 | 0.00 | 0.00 | 62 | 1017.8 |
| 20260502033137 | 5 | 75 | 0.0 | 1.6 | 0.00 | 0.00 | 0.00 | 61 | 1017.9 |
| 20260502032632 | 5 | 60 | 0.0 | 1.6 | 0.00 | 0.00 | 0.00 | 59 | 1017.9 |
| 20260502032129 | 5 | 66 | 0.0 | 1.6 | 0.00 | 0.00 | 0.00 | 59 | 1017.8 |
| 20260502031627 | 6 | 66 | 0.0 | 1.6 | 0.00 | 0.00 | 0.00 | 57 | 1017.8 |
| 20260502031125 | 6 | 74 | 0.0 | 0.0 | 0.00 | 0.00 | 0.00 | 56 | 1017.8 |
| 20260502030624 | 6 | 74 | 0.0 | 0.0 | 0.00 | 0.00 | 0.00 | 54 | 1017.7 |
| 20260502030121 | 6 | 66 | 0.0 | 1.6 | 0.00 | 0.00 | 0.00 | 55 | 1017.8 |
| 20260502025618 | 6 | 75 | 0.0 | 0.0 | 0.00 | 0.00 | 0.00 | 54 | 1017.7 |
| 20260502025116 | 7 | 54 | 0.0 | 3.2 | 0.00 | 0.00 | 0.00 | 51 | 1017.5 |
| 20260502024614 | 7 | 74 | 0.0 | 1.6 | 0.00 | 0.00 | 0.00 | 50 | 1017.6 |
| 20260502024111 | 7 | 66 | 0.0 | 1.6 | 0.00 | 0.00 | 0.00 | 50 | 1017.4 |
| 20260502024014 | 7 | 82 | 0.0 | 1.6 | 0.00 | 0.00 | 0.00 | 49 | 1017.5 |
| 20260502023511 | 7 | 66 | 0.0 | 3.2 | 0.00 | 0.00 | 0.00 | 47 | 1017.5 |
| 20260502023008 | 7 | 6 | 0.0 | 1.6 | 0.00 | 0.00 | 0.00 | 47 | 1017.2 |
| 20260502022505 | 8 | 32 | 0.0 | 1.6 | 0.00 | 0.00 | 0.00 | 48 | 1017.6 |
| 20260502022003 | 8 | 57 | 0.0 | 1.6 | 0.00 | 0.00 | 0.00 | 47 | 1017.4 |
| 20260502021459 | 8 | 49 | 0.0 | 1.6 | 0.00 | 0.00 | 0.00 | 46 | 1017.3 |
| 20260502020956 | 8 | 90 | 0.0 | 1.6 | 0.00 | 0.00 | 0.00 | 44 | 1017.5 |
| 20260502020454 | 8 | 66 | 1.6 | 3.2 | 0.00 | 0.00 | 0.00 | 45 | 1017.4 |
| 20260502015950 | 8 | 36 | 0.0 | 4.8 | 0.00 | 0.00 | 0.00 | 42 | 1017.3 |
| 20260502015449 | 8 | 66 | 0.0 | 1.6 | 0.00 | 0.00 | 0.00 | 42 | 1017.3 |
| 20260502014945 | 8 | 98 | 0.0 | 3.2 | 0.00 | 0.00 | 0.00 | 41 | 1017.2 |
| 20260502014442 | 8 | 54 | 0.0 | 3.2 | 0.00 | 0.00 | 0.00 | 43 | 1017.1 |
| 20260502013938 | 8 | 98 | 1.6 | 3.2 | 0.00 | 0.00 | 0.00 | 43 | 1017.0 |
| 20260502013434 | 8 | 57 | 0.0 | 3.2 | 0.00 | 0.00 | 0.00 | 42 | 1016.9 |
| 20260502012930 | 8 | 52 | 3.2 | 3.2 | 0.00 | 0.00 | 0.00 | 44 | 1016.8 |
| 20260502012428 | 8 | 57 | 1.6 | 3.2 | 0.00 | 0.00 | 0.00 | 41 | 1016.9 |
| 20260502011926 | 8 | 40 | 0.0 | 3.2 | 0.00 | 0.00 | 0.00 | 42 | 1016.9 |
| 20260502011421 | 8 | 90 | 0.0 | 3.2 | 0.00 | 0.00 | 0.00 | 40 | 1016.8 |
| 20260502010918 | 9 | 0 | 0.0 | 4.8 | 0.00 | 0.00 | 0.00 | 38 | 1016.7 |
| 20260502010328 | 9 | 63 | 0.0 | 4.8 | 0.00 | 0.00 | 0.00 | 41 | 1016.8 |
| 20260502005825 | 9 | 45 | 0.0 | 6.4 | 0.00 | 0.00 | 0.00 | 39 | 1016.7 |
| 20260502005323 | 9 | 59 | 3.2 | 4.8 | 0.00 | 0.00 | 0.00 | 38 | 1016.7 |
| 20260502004820 | 10 | 63 | 3.2 | 4.8 | 0.00 | 0.00 | 0.00 | 36 | 1016.5 |
| 20260502004548 | 10 | 32 | 1.6 | 8.0 | 0.00 | 0.00 | 0.00 | 40 | 1016.8 |
| 20260502004045 | 10 | 16 | 3.2 | 4.8 | 0.00 | 0.00 | 0.00 | 36 | 1016.3 |
| 20260502003543 | 10 | 32 | 4.8 | 4.8 | 0.00 | 0.00 | 0.00 | 37 | 1016.5 |
| 20260502003039 | 10 | 338 | 3.2 | 8.0 | 0.00 | 0.00 | 0.00 | 36 | 1016.3 |
| 20260502002536 | 10 | 339 | 0.0 | 4.8 | 0.00 | 0.00 | 0.00 | 38 | 1016.2 |
| 20260502002033 | 10 | 334 | 4.8 | 9.7 | 0.00 | 0.00 | 0.00 | 35 | 1016.3 |
| 20260502001531 | 10 | 29 | 3.2 | 4.8 | 0.00 | 0.00 | 0.00 | 36 | 1016.3 |
| 20260502001028 | 10 | 45 | 3.2 | 6.4 | 0.00 | 0.00 | 0.00 | 39 | 1016.1 |
| 20260502000526 | 10 | 244 | 4.8 | 6.4 | 0.00 | 0.00 | 0.00 | 36 | 1016.3 |
| 20260502000023 | 10 | 338 | 0.0 | 11.3 | 0.00 | 0.00 | 0.00 | 33 | 1016.2 |
| 20260501235518 | 10 | 84 | 3.2 | 6.4 | 0.00 | 0.00 | 0.00 | 38 | 1016.3 |
| 20260501235107 | 10 | 7 | 1.6 | 4.8 | 0.00 | 0.00 | 0.00 | 35 | 1016.2 |
| 20260501234603 | 10 | 324 | 3.2 | 6.4 | 0.00 | 0.00 | 0.00 | 38 | 1016.2 |
| 20260501234101 | 10 | 71 | 4.8 | 4.8 | 0.00 | 0.00 | 0.00 | 37 | 1016.3 |
| 20260501233559 | 11 | 335 | 0.0 | 8.0 | 0.00 | 0.00 | 0.00 | 34 | 1016.1 |
| 20260501233055 | 10 | 21 | 3.2 | 8.0 | 0.00 | 0.00 | 0.00 | 36 | 1016.2 |
| 20260501232551 | 10 | 28 | 3.2 | 8.0 | 0.00 | 0.00 | 0.00 | 37 | 1016.2 |
| 20260501232049 | 10 | 352 | 4.8 | 8.0 | 0.00 | 0.00 | 0.00 | 38 | 1016.1 |
| 20260501231547 | 10 | 12 | 0.0 | 6.4 | 0.00 | 0.00 | 0.00 | 35 | 1016.2 |
| 20260501231045 | 11 | 28 | 4.8 | 9.7 | 0.00 | 0.00 | 0.00 | 35 | 1016.1 |
| 20260501230543 | 10 | 350 | 6.4 | 12.9 | 0.00 | 0.00 | 0.00 | 33 | 1016.5 |
| 20260501230041 | 10 | 0 | 1.6 | 8.0 | 0.00 | 0.00 | 0.00 | 34 | 1016.2 |
| 20260501225538 | 10 | 0 | 3.2 | 8.0 | 0.00 | 0.00 | 0.00 | 34 | 1016.0 |
| 20260501225034 | 11 | 315 | 3.2 | 8.0 | 0.00 | 0.00 | 0.00 | 32 | 1016.2 |
| 20260501224532 | 11 | 61 | 3.2 | 6.4 | 0.00 | 0.00 | 0.00 | 36 | 1016.1 |
| 20260501224029 | 11 | 81 | 4.8 | 9.7 | 0.00 | 0.00 | 0.00 | 34 | 1016.2 |
| 20260501223525 | 10 | 249 | 4.8 | 8.0 | 0.00 | 0.00 | 0.00 | 33 | 1016.1 |
| 20260501223345 | 11 | 339 | 3.2 | 9.7 | 0.00 | 0.00 | 0.00 | 33 | 1016.2 |
| 20260501222840 | 10 | 3 | 4.8 | 6.4 | 0.00 | 0.00 | 0.00 | 32 | 1016.1 |
| 20260501222338 | 11 | 343 | 9.7 | 12.9 | 0.00 | 0.00 | 0.00 | 32 | 1016.2 |
| 20260501221834 | 10 | 358 | 4.8 | 11.3 | 0.00 | 0.00 | 0.00 | 34 | 1016.3 |
| 20260501221332 | 10 | 277 | 0.0 | 8.0 | 0.00 | 0.00 | 0.00 | 34 | 1016.1 |
| 20260501220830 | 10 | 12 | 1.6 | 11.3 | 0.00 | 0.00 | 0.00 | 33 | 1016.0 |
| 20260501220327 | 10 | 334 | 4.8 | 9.7 | 0.00 | 0.00 | 0.00 | 35 | 1016.0 |
| 20260501215823 | 10 | 0 | 4.8 | 16.1 | 0.00 | 0.00 | 0.00 | 35 | 1016.2 |
| 20260501215651 | 11 | 273 | 4.8 | 9.7 | 0.00 | 0.00 | 0.00 | 33 | 1016.2 |
| 20260501215146 | 11 | 357 | 4.8 | 8.0 | 0.00 | 0.00 | 0.00 | 35 | 1016.1 |
| 20260501214641 | 10 | 32 | 0.0 | 16.1 | 0.00 | 0.00 | 0.00 | 33 | 1016.0 |
| 20260501214137 | 10 | 36 | 3.2 | 8.0 | 0.00 | 0.00 | 0.00 | 36 | 1015.9 |
| 20260501213634 | 11 | 325 | 9.7 | 12.9 | 0.00 | 0.00 | 0.00 | 34 | 1015.9 |
| 20260501213130 | 11 | 290 | 3.2 | 11.3 | 0.00 | 0.00 | 0.00 | 33 | 1016.0 |
| 20260501212627 | 10 | 3 | 4.8 | 9.7 | 0.00 | 0.00 | 0.00 | 36 | 1016.0 |
| 20260501212123 | 9 | 341 | 3.2 | 4.8 | 0.00 | 0.00 | 0.00 | 39 | 1016.0 |
| 20260501211620 | 10 | 54 | 0.0 | 11.3 | 0.00 | 0.00 | 0.00 | 38 | 1016.3 |
| 20260501211118 | 10 | 82 | 0.0 | 8.0 | 0.00 | 0.00 | 0.00 | 37 | 1016.0 |
| 20260501210615 | 8 | 65 | 3.2 | 4.8 | 0.00 | 0.00 | 0.00 | 43 | 1016.1 |
| 20260501210111 | 10 | 252 | 0.0 | 9.7 | 0.00 | 0.00 | 0.00 | 37 | 1016.2 |
| 20260501205607 | 10 | 49 | 4.8 | 8.0 | 0.00 | 0.00 | 0.00 | 37 | 1016.2 |